Location: Tierra del Sol
(32.6128°N, 116.3319°W)
Time: 04:35:33
(UTC-07:00)

Vanguard 1 Rocket - All Passes

Search period start: 17 July 2018 00:00
Search period end: 27 July 2018 00:00
Orbit: 652 x 4225 km, 34.3° (Epoch: 16 July)

Date Brightness Start Highest point End Pass type
(mag) Time Alt. Az. Time Alt. Az. Time Alt. Az.
17 Jul - 04:40:34 10° SSE 04:52:55 16° SE 05:03:47 10° ESE visible
17 Jul - 07:01:28 10° SSW 07:23:59 44° SSE 07:38:16 10° E daylight
17 Jul - 09:32:48 10° WSW 09:53:54 78° SSE 10:04:29 10° ENE daylight
17 Jul - 12:07:36 10° W 12:21:58 81° N 12:29:04 10° E daylight
17 Jul - 14:39:34 10° WNW 14:47:56 60° SSW 14:52:54 10° SE daylight
18 Jul - 05:48:59 10° SSW 06:09:54 33° SE 06:25:18 10° E daylight
18 Jul - 08:17:16 10° SW 08:40:37 66° SSE 08:53:26 10° ENE daylight
18 Jul - 10:51:39 10° W 11:09:46 85° N 11:18:32 10° E daylight
18 Jul - 13:25:37 10° WNW 13:36:54 86° SSW 13:42:48 10° ESE daylight
18 Jul - 15:56:22 10° W 16:01:20 23° SW 16:05:06 10° SSE daylight
19 Jul - 04:38:42 10° S 04:55:41 22° SE 05:10:10 10° E visible
19 Jul - 07:02:46 10° SW 07:26:45 53° SSE 07:41:48 10° E daylight
19 Jul - 09:35:20 10° WSW 09:56:57 86° SSE 10:07:48 10° ENE daylight
19 Jul - 12:10:35 10° W 12:25:15 83° N 12:32:27 10° E daylight
19 Jul - 14:42:41 10° WNW 14:50:58 47° SSW 14:55:56 10° SE daylight
20 Jul - 03:33:58 10° SSE 03:41:31 12° SE 03:48:48 10° ESE visible
20 Jul - 05:49:40 10° SSW 06:12:33 40° SE 06:29:14 10° E daylight
20 Jul - 08:19:23 10° WSW 08:43:32 74° SSE 08:56:44 10° ENE daylight
20 Jul - 10:54:34 10° W 11:12:59 83° N 11:21:53 10° E daylight
20 Jul - 13:28:35 10° WNW 13:40:04 74° SSW 13:46:04 10° ESE daylight
20 Jul - 16:00:23 10° W 16:04:05 15° SW 16:07:06 10° S daylight
21 Jul - 04:38:22 10° S 04:58:16 29° SE 05:15:04 10° E visible
21 Jul - 07:04:26 10° SW 07:29:30 62° SSE 07:45:10 10° ENE daylight
21 Jul - 09:38:01 10° WSW 10:00:03 89° N 10:11:06 10° E daylight
21 Jul - 12:13:32 10° W 12:28:30 89° NNE 12:35:49 10° ESE daylight
21 Jul - 14:45:55 10° W 14:53:50 35° SW 14:58:46 10° SSE daylight
22 Jul - 03:29:58 10° SSE 03:44:09 18° SE 03:57:38 10° E visible
22 Jul - 05:50:50 10° SSW 06:15:07 49° SE 06:32:49 10° ENE daylight
22 Jul - 08:21:45 10° WSW 08:46:26 82° SSE 09:00:00 10° ENE daylight
22 Jul - 10:57:29 10° W 11:16:11 83° N 11:25:15 10° E daylight
22 Jul - 13:31:33 10° WNW 13:43:08 62° SSW 13:49:13 10° SE daylight
23 Jul - 04:38:51 10° SSW 05:00:41 36° SE 05:19:13 10° E visible
23 Jul - 07:06:24 10° SW 07:32:13 70° SSE 07:48:26 10° ENE daylight
23 Jul - 09:40:50 10° W 10:03:09 85° N 10:14:25 10° E daylight
23 Jul - 12:16:26 10° WNW 12:31:40 84° SSW 12:39:07 10° ESE daylight
23 Jul - 14:49:19 10° W 14:56:34 26° SW 15:01:18 10° SSE daylight
24 Jul - 03:28:58 10° S 03:46:32 24° SE 04:03:23 10° E visible
24 Jul - 05:52:23 10° SW 06:17:37 57° SSE 06:36:11 10° ENE daylight
24 Jul - 08:24:19 10° WSW 08:49:23 88° SSE 09:03:15 10° ENE daylight
24 Jul - 11:00:24 10° W 11:19:24 86° N 11:28:37 10° E daylight
24 Jul - 13:34:32 10° WNW 13:46:02 50° SW 13:52:14 10° SE daylight
25 Jul - 02:23:57 10° SSE 02:32:46 13° SE 02:41:46 10° ESE visible
25 Jul - 04:39:53 10° SSW 05:03:00 44° SE 05:22:55 10° ENE visible
25 Jul - 07:08:39 10° WSW 07:34:57 78° SSE 07:51:38 10° ENE daylight
25 Jul - 09:43:42 10° W 10:06:18 84° N 10:17:45 10° E daylight
25 Jul - 12:19:18 10° WNW 12:34:45 74° SSW 12:42:21 10° ESE daylight
25 Jul - 14:53:05 10° W 14:59:08 19° SW 15:03:25 10° S daylight
26 Jul - 03:29:09 10° S 03:48:45 31° SE 04:07:58 10° E visible
26 Jul - 05:54:16 10° SW 06:20:07 65° SSE 06:39:25 10° ENE daylight
26 Jul - 08:27:02 10° WSW 08:52:22 88° N 09:06:31 10° E daylight
26 Jul - 11:03:16 10° W 11:22:34 89° SSW 11:31:56 10° ESE daylight
26 Jul - 13:37:36 10° WNW 13:48:46 39° SW 13:55:01 10° SSE daylight
